| time (UTC) | temp F | wind direction | speed MPH | gust MPH | rain 1hr in | rain 24hr in | rain mn in | humidity % | barometer mb |
| 20260507184516 | 56 | 345 | 1.0 | 7.0 | 0.00 | 0.27 | 0.00 | 40 | 1005.0 |
| 20260507183033 | 57 | 252 | 5.0 | 10.0 | 0.00 | 0.27 | 0.00 | 42 | 1005.0 |
| 20260507181514 | 58 | 279 | 4.0 | 10.0 | 0.00 | 0.27 | 0.00 | 45 | 1005.2 |
| 20260507180014 | 58 | 231 | 4.0 | 9.0 | 0.00 | 0.27 | 0.00 | 46 | 1005.0 |
| 20260507174515 | 59 | 234 | 1.0 | 8.0 | 0.00 | 0.31 | 0.00 | 41 | 1005.1 |
| 20260507173012 | 59 | 260 | 4.0 | 10.0 | 0.00 | 0.31 | 0.00 | 42 | 1005.0 |
| 20260507171511 | 59 | 328 | 1.0 | 7.0 | 0.00 | 0.31 | 0.00 | 43 | 1005.1 |
| 20260507170008 | 58 | 248 | 3.0 | 10.0 | 0.00 | 0.31 | 0.00 | 45 | 1005.3 |
| 20260507164505 | 57 | 236 | 6.0 | 10.0 | 0.00 | 0.31 | 0.00 | 46 | 1005.3 |
| 20260507163004 | 57 | 309 | 3.0 | 9.0 | 0.00 | 0.31 | 0.00 | 52 | 1005.6 |
| 20260507161503 | 56 | 259 | 3.0 | 8.0 | 0.00 | 0.31 | 0.00 | 46 | 1005.6 |
| 20260507160059 | 55 | 255 | 4.0 | 8.0 | 0.00 | 0.31 | 0.00 | 58 | 1005.7 |
| 20260507154556 | 55 | 252 | 2.0 | 9.0 | 0.00 | 0.31 | 0.00 | 62 | 1005.9 |
| 20260507153102 | 53 | 237 | 4.0 | 11.0 | 0.00 | 0.31 | 0.00 | 66 | 1006.2 |
| 20260507151554 | 54 | 255 | 2.0 | 8.0 | 0.00 | 0.31 | 0.00 | 65 | 1006.3 |
| 20260507150052 | 54 | 229 | 2.0 | 5.0 | 0.00 | 0.31 | 0.00 | 63 | 1006.3 |
| 20260507144553 | 53 | 261 | 1.0 | 8.0 | 0.00 | 0.31 | 0.00 | 69 | 1006.6 |
| 20260507143055 | 54 | 239 | 2.0 | 6.0 | 0.00 | 0.31 | 0.00 | 67 | 1006.3 |
| 20260507141548 | 54 | 267 | 3.0 | 8.0 | 0.00 | 0.31 | 0.00 | 65 | 1006.3 |
| 20260507140055 | 53 | 243 | 2.0 | 9.0 | 0.00 | 0.31 | 0.00 | 69 | 1006.3 |
| 20260507134543 | 54 | 244 | 2.0 | 5.0 | 0.00 | 0.31 | 0.00 | 67 | 1006.3 |
| 20260507133039 | 53 | 257 | 2.0 | 6.0 | 0.00 | 0.31 | 0.00 | 69 | 1006.6 |
| 20260507131538 | 52 | 256 | 2.0 | 7.0 | 0.00 | 0.31 | 0.00 | 71 | 1006.5 |
| 20260507130038 | 52 | 238 | 1.0 | 5.0 | 0.00 | 0.31 | 0.00 | 70 | 1006.5 |
| 20260507124546 | 51 | 249 | 1.0 | 5.0 | 0.00 | 0.31 | 0.00 | 72 | 1006.4 |
| 20260507123029 | 50 | 257 | 2.0 | 8.0 | 0.00 | 0.31 | 0.00 | 76 | 1006.6 |
| 20260507121526 | 48 | 281 | 2.0 | 8.0 | 0.00 | 0.31 | 0.00 | 80 | 1006.8 |
| 20260507120025 | 47 | 252 | 2.0 | 6.0 | 0.00 | 0.31 | 0.00 | 82 | 1006.8 |
| 20260507114525 | 47 | 249 | 1.0 | 5.0 | 0.00 | 0.31 | 0.00 | 83 | 1006.6 |
| 20260507113020 | 46 | 247 | 1.0 | 4.0 | 0.00 | 0.31 | 0.00 | 87 | 1006.6 |
| 20260507111519 | 45 | 244 | 1.0 | 4.0 | 0.00 | 0.31 | 0.00 | 87 | 1006.5 |
| 20260507110027 | 45 | 247 | 0.0 | 3.0 | 0.00 | 0.31 | 0.00 | 87 | 1006.3 |
| 20260507104516 | 45 | 186 | 0.0 | 3.0 | 0.00 | 0.31 | 0.00 | 88 | 1006.4 |
| 20260507103015 | 45 | 22 | 0.0 | 5.0 | 0.00 | 0.31 | 0.00 | 88 | 1006.4 |
| 20260507101514 | 45 | 18 | 0.0 | 3.0 | 0.00 | 0.31 | 0.00 | 88 | 1005.9 |
| 20260507100021 | 46 | 54 | 0.0 | 4.0 | 0.00 | 0.31 | 0.00 | 89 | 1006.4 |
| 20260507094512 | 46 | 323 | 2.0 | 6.0 | 0.00 | 0.31 | 0.00 | 90 | 1006.4 |
| 20260507093013 | 46 | 273 | 0.0 | 4.0 | 0.00 | 0.31 | 0.00 | 90 | 1006.2 |
| 20260507091510 | 46 | 264 | 1.0 | 5.0 | 0.00 | 0.31 | 0.00 | 91 | 1006.2 |
| 20260507090007 | 46 | 307 | 2.0 | 6.0 | 0.00 | 0.31 | 0.00 | 91 | 1005.9 |
| 20260507084501 | 46 | 250 | 1.0 | 6.0 | 0.00 | 0.31 | 0.00 | 91 | 1005.8 |
| 20260507083101 | 46 | 269 | 1.0 | 4.0 | 0.00 | 0.31 | 0.00 | 91 | 1005.7 |
| 20260507083002 | 46 | 250 | 1.0 | 4.0 | 0.00 | 0.31 | 0.00 | 91 | 1005.6 |
| 20260507081600 | 46 | 252 | 0.0 | 3.0 | 0.00 | 0.31 | 0.00 | 91 | 1005.5 |
| 20260507074607 | 47 | 257 | 2.0 | 6.0 | 0.00 | 0.31 | 0.00 | 91 | 1005.5 |
| 20260507073055 | 47 | 246 | 1.0 | 8.0 | 0.00 | 0.31 | 0.00 | 92 | 1005.1 |
| 20260507071553 | 47 | 242 | 0.0 | 6.0 | 0.00 | 0.31 | 0.00 | 91 | 1005.4 |
| 20260507070106 | 47 | 264 | 1.0 | 7.0 | 0.00 | 0.31 | 0.00 | 92 | 1005.2 |
| 20260507064547 | 48 | 301 | 3.0 | 11.0 | 0.00 | 0.31 | 0.00 | 92 | 1005.2 |
| 20260507063055 | 48 | 251 | 1.0 | 6.0 | 0.00 | 0.31 | 0.00 | 92 | 1005.1 |
| 20260507061547 | 48 | 248 | 2.0 | 7.0 | 0.00 | 0.31 | 0.00 | 92 | 1004.9 |
| 20260507060045 | 48 | 261 | 2.0 | 7.0 | 0.00 | 0.31 | 0.00 | 92 | 1005.2 |
| 20260507054543 | 48 | 245 | 2.0 | 6.0 | 0.00 | 0.31 | 0.00 | 92 | 1005.0 |
| 20260507053040 | 48 | 243 | 2.0 | 6.0 | 0.00 | 0.31 | 0.00 | 92 | 1005.1 |
| 20260507051536 | 48 | 296 | 2.0 | 6.0 | 0.00 | 0.31 | 0.00 | 92 | 1005.1 |
| 20260507050036 | 49 | 245 | 1.0 | 7.0 | 0.00 | 0.31 | 0.00 | 92 | 1004.9 |
| 20260507044531 | 49 | 259 | 2.0 | 7.0 | 0.00 | 0.31 | 0.00 | 93 | 1005.0 |
| 20260507043029 | 49 | 240 | 2.0 | 7.0 | 0.00 | 0.31 | 0.00 | 93 | 1004.9 |
| 20260507041526 | 50 | 264 | 2.0 | 7.0 | 0.02 | 0.31 | 0.00 | 94 | 1004.9 |
| 20260507040025 | 50 | 245 | 3.0 | 7.0 | 0.02 | 0.31 | 0.00 | 94 | 1004.6 |
| 20260507034531 | 50 | 317 | 3.0 | 8.0 | 0.03 | 0.31 | 0.31 | 94 | 1004.5 |
| 20260507033017 | 51 | 248 | 2.0 | 7.0 | 0.03 | 0.31 | 0.31 | 93 | 1004.5 |
| 20260507031513 | 52 | 261 | 3.0 | 7.0 | 0.01 | 0.28 | 0.28 | 92 | 1004.7 |
| 20260507030012 | 53 | 8 | 3.0 | 9.0 | 0.02 | 0.28 | 0.28 | 91 | 1004.4 |
| 20260507024506 | 55 | 262 | 3.0 | 7.0 | 0.02 | 0.28 | 0.28 | 93 | 1004.3 |
| 20260507023001 | 56 | 238 | 2.0 | 6.0 | 0.02 | 0.28 | 0.28 | 93 | 1004.1 |
| 20260507021559 | 58 | 260 | 0.0 | 7.0 | 0.02 | 0.28 | 0.28 | 94 | 1003.9 |
| 20260507020055 | 58 | 250 | 3.0 | 8.0 | 0.01 | 0.27 | 0.27 | 94 | 1003.5 |
| 20260507014556 | 58 | 246 | 3.0 | 9.0 | 0.00 | 0.26 | 0.26 | 94 | 1003.6 |
| 20260507013108 | 58 | 248 | 2.0 | 10.0 | 0.00 | 0.26 | 0.26 | 94 | 1003.7 |
| 20260507011549 | 58 | 245 | 4.0 | 9.0 | 0.00 | 0.26 | 0.26 | 94 | 1003.6 |
| 20260507010055 | 58 | 197 | 4.0 | 8.0 | 0.00 | 0.26 | 0.26 | 94 | 1003.7 |
| 20260507004548 | 58 | 264 | 3.0 | 8.0 | 0.00 | 0.26 | 0.26 | 94 | 1003.6 |
| 20260507003044 | 58 | 253 | 5.0 | 9.0 | 0.00 | 0.26 | 0.26 | 94 | 1003.7 |
| 20260507001549 | 58 | 197 | 3.0 | 8.0 | 0.00 | 0.26 | 0.26 | 94 | 1003.5 |
| 20260507000042 | 58 | 251 | 3.0 | 7.0 | 0.00 | 0.26 | 0.26 | 94 | 1003.5 |
| 20260506234541 | 59 | 248 | 3.0 | 9.0 | 0.00 | 0.26 | 0.26 | 93 | 1003.3 |
| 20260506233054 | 59 | 247 | 3.0 | 9.0 | 0.00 | 0.26 | 0.26 | 93 | 1003.4 |
| 20260506231539 | 59 | 233 | 3.0 | 9.0 | 0.00 | 0.26 | 0.26 | 93 | 1003.5 |
| 20260506230033 | 59 | 256 | 3.0 | 6.0 | 0.00 | 0.26 | 0.26 | 93 | 1003.5 |
| 20260506224532 | 59 | 247 | 3.0 | 11.0 | 0.00 | 0.26 | 0.26 | 93 | 1003.6 |
| 20260506223029 | 59 | 258 | 3.0 | 10.0 | 0.00 | 0.26 | 0.26 | 93 | 1003.6 |
| 20260506221527 | 59 | 240 | 4.0 | 10.0 | 0.01 | 0.26 | 0.26 | 93 | 1003.7 |
| 20260506220029 | 59 | 222 | 3.0 | 9.0 | 0.02 | 0.26 | 0.26 | 93 | 1003.8 |
| 20260506214524 | 60 | 191 | 1.0 | 8.0 | 0.02 | 0.26 | 0.26 | 93 | 1003.8 |
| 20260506213023 | 60 | 146 | 3.0 | 9.0 | 0.02 | 0.26 | 0.26 | 93 | 1004.0 |
| 20260506211526 | 60 | 234 | 3.0 | 7.0 | 0.03 | 0.25 | 0.25 | 93 | 1004.1 |
| 20260506210030 | 60 | 179 | 2.0 | 9.0 | 0.03 | 0.24 | 0.24 | 93 | 1004.1 |
| 20260506204520 | 60 | 148 | 2.0 | 8.0 | 0.04 | 0.24 | 0.24 | 93 | 1004.3 |
| 20260506203019 | 60 | 217 | 2.0 | 7.0 | 0.05 | 0.24 | 0.24 | 93 | 1004.4 |
| 20260506201519 | 60 | 255 | 0.0 | 7.0 | 0.03 | 0.22 | 0.22 | 93 | 1004.5 |
| 20260506200033 | 60 | 244 | 1.0 | 6.0 | 0.03 | 0.21 | 0.21 | 92 | 1004.5 |
| 20260506194517 | 60 | 250 | 1.0 | 4.0 | 0.04 | 0.20 | 0.20 | 92 | 1004.4 |
| 20260506193015 | 60 | 247 | 2.0 | 5.0 | 0.08 | 0.19 | 0.19 | 92 | 1004.4 |
| 20260506191515 | 60 | 252 | 1.0 | 5.0 | 0.11 | 0.19 | 0.19 | 92 | 1004.5 |
| 20260506190011 | 60 | 247 | 1.0 | 5.0 | 0.14 | 0.18 | 0.18 | 92 | 1005.0 |